Powrót do katalogu

COSMOS 1818 COOLANT

LostLEO
NORAD 50780·DEBRIS·🇷🇺 Russia

Wystrzelony Feb 1, 1987 z Baikonur Cosmodrome

Loading…

Następne Przeloty (najbliższe 24 godziny)

TLE

NieaktualneSource: Space-Track

Epoka: Oct 22, 2022, 12:26 UTC

1 50780U 87011AV  22295.51841937  .00000526  00000-0  21982-3 0  9993
2 50780  65.0046 333.1067 0015160 261.9427  97.9939 14.34915730517691

Śledź COSMOS 1818 COOLANT w czasie rzeczywistym z AllMySat

Download on the App Store